This is the latest recevied weather packets stored in our database for station/object KO5MO-11. If no packets are shown the sender has not sent any weather packets the latest 10 day(s).
| Time | Temp. | Humidity | Pressure | Rain* | Wind** | Luminosity | Snow |
|---|---|---|---|---|---|---|---|
| 1777834472 | 23.89° C | 37% | 1008.8 hPa | - | - | 755 W/m² | - |
| 1777833872 | 24.44° C | 37% | 1009 hPa | - | - | 764 W/m² | - |
| 1777833272 | 26.11° C | 36% | 1009 hPa | - | - | 798 W/m² | - |
| 1777832672 | 24.44° C | 42% | 1009.4 hPa | - | - | 768 W/m² | - |
| 1777832072 | 23.89° C | 37% | 1009.5 hPa | - | - | 752 W/m² | - |
| 1777831472 | 24.44° C | 37% | 1009.6 hPa | - | - | 760 W/m² | - |
| 1777830872 | 25° C | 36% | 1009.8 hPa | - | - | 773 W/m² | - |
| 1777830272 | 26.11° C | 37% | 1009.8 hPa | - | - | 795 W/m² | - |
| 1777829672 | 23.89° C | 39% | 1010 hPa | - | - | 756 W/m² | - |
| 1777829072 | 23.89° C | 37% | 1009.9 hPa | - | - | 752 W/m² | - |
| 1777828472 | 24.44° C | 36% | 1010 hPa | - | - | 762 W/m² | - |
| 1777827872 | 26.11° C | 35% | 1010.1 hPa | - | - | 794 W/m² | - |
| 1777827272 | 25° C | 41% | 1010.1 hPa | - | - | 773 W/m² | - |
| 1777826672 | 23.33° C | 37% | 1010.1 hPa | - | - | 746 W/m² | - |
| 1777826072 | 23.89° C | 36% | 1010 hPa | - | - | 755 W/m² | - |
| 1777825472 | 25° C | 36% | 1010.1 hPa | - | - | 772 W/m² | - |
| 1777824872 | 26.11° C | 36% | 1009.9 hPa | - | - | 796 W/m² | - |
| 1777824272 | 24.44° C | 43% | 1010.1 hPa | - | - | 762 W/m² | - |
| 1777823672 | 23.33° C | 37% | 1010 hPa | - | - | 749 W/m² | - |
| 1777823072 | 23.89° C | 36% | 1010 hPa | - | - | 758 W/m² | - |
| 1777822472 | 26.67° C | 35% | 1010 hPa | - | - | 800 W/m² | - |
| 1777821872 | 25° C | 40% | 1010.1 hPa | - | - | 777 W/m² | - |
| 1777821272 | 23.33° C | 36% | 1010 hPa | - | - | 748 W/m² | - |
| 1777820672 | 23.89° C | 36% | 1010 hPa | - | - | 758 W/m² | - |
| 1777820072 | 26.11° C | 35% | 1010 hPa | - | - | 797 W/m² | - |
* Rain since midnight (hover to see other rain measurements)
** Current wind speed in m/s (hover to see current wind gust speed)